Home > Weather > Longyearbyen > Past weeks

Flag for Norway Past Weather in Longyearbyen, Svalbard, Norway — Yesterday and Last 2 Weeks

Now
45 °F

Partly sunny.


Feels Like: 41 °F
Forecast: 44 / 51 °F
Wind: 7 mph from Northwest

Location: Svalbard Lufthavn

Current Time: Jul 31, 2016 at 9:29:23 AM

Latest Report: Jul 31, 2016 at 8:50 AM


Visibility: N/A

Pressure: 29.86 "Hg

Humidity: 66%

Dew Point: 34 °F

Location of LongyearbyenLocation

Past Weather in Longyearbyen — Graph

°F

Longyearbyen Temperature Yesterday

Maximum temperature yesterday: 46 °F (at 12:50 PM)
Minimum temperature yesterday: 45 °F (at 12:50 AM)
Average temperature yesterday: 46 °F

High & Low Weather Summary for the Past Weeks

 TemperatureHumidityPressure
High54 °F (Jul 17, 7:50 PM)100% (Jul 16, 7:50 AM)30.21 "Hg (Jul 16, 7:50 AM)
Low43 °F (Jul 21, 3:50 AM)51% (Jul 26, 7:50 PM)29.47 "Hg (Jul 19, 10:50 AM)
Average47 °F79%29.91 "Hg
* Reported Jul 16 7:20 AM — Jul 31 7:50 AM, Longyearbyen, Weather by CustomWeather, © 2016

Note: Actual official high and low records may vary slightly from our data, if they occured in-between our weather recording intervals... More about our weather records

Advertising

Longyearbyen Weather History for the Previous 24 Hours

Scroll right to see more
 ConditionsComfort  
Time TempWeatherWind HumidityBarometerVisibility
7:50 AM
Sun, Jul 31
45 °FBroken clouds.10 mph66%29.86 "HgN/A
6:50 AM45 °FOvercast.9 mph66%29.86 "HgN/A
5:50 AM45 °FScattered clouds.12 mph66%29.86 "HgN/A
4:50 AM43 °FPartly sunny.10 mph76%29.86 "HgN/A
3:50 AM43 °FScattered clouds.15 mph81%29.86 "HgN/A
2:50 AM45 °FScattered clouds.14 mph71%29.86 "HgN/A
1:50 AM45 °FScattered clouds.12 mph76%29.86 "HgN/A
12:50 AM45 °FPartly sunny.13 mph76%29.86 "HgN/A
11:50 PM
Sat, Jul 30
46 °FPartly sunny.16 mph76%29.86 "HgN/A
10:50 PM46 °FPartly sunny.16 mph71%29.86 "HgN/A
9:50 PM46 °FPartly sunny.15 mph71%29.89 "HgN/A
8:50 PM46 °FLight rain. Partly sunny.14 mph76%29.89 "HgN/A
7:50 PM46 °FLight rain. Partly sunny.13 mph76%29.92 "HgN/A
6:50 PM45 °FLight rain. Partly sunny.17 mph81%29.92 "HgN/A
6:20 PM46 °FLight rain. Partly sunny.15 mph71%29.95 "HgN/A
5:50 PM46 °FPartly sunny.14 mph66%29.95 "HgN/A
4:50 PM46 °FScattered clouds.13 mph62%29.95 "HgN/A
3:50 PM46 °FScattered clouds.9 mph62%29.95 "HgN/A
2:50 PM46 °FScattered clouds.8 mph62%29.98 "HgN/A
1:50 PM46 °FPassing clouds.8 mph57%29.98 "HgN/A
1:20 PM46 °FPassing clouds.9 mph62%29.98 "HgN/A
12:50 PM46 °FPassing clouds.8 mph62%29.98 "HgN/A
11:20 AM45 °FPassing clouds.12 mph66%29.98 "HgN/A
10:50 AM45 °FScattered clouds.8 mph66%29.98 "HgN/A
9:50 AM45 °FScattered clouds.9 mph66%29.98 "HgN/A
Weather by CustomWeather, © 2016

See weather overviewHow to use our weather pages